Location: Salillas
(41.9950°N, 0.2228°W)
Time: 01:36:37
(UTC+00:00)

STARLINK-1094 - Pass Details

Date: 29 March 2020
Orbit: 549 x 551 km, 53.0° (Epoch: 05 June)

Event Time Altitude Azimuth Distance (km) Brightness Sun altitude
Rises 19:10:59 0° 309° (NW) 2,718 8.5 -9.5°
Reaches altitude 10° 19:13:20 10° 317° (NW) 1,822 7.2 -9.9°
Maximum altitude 19:17:15 40° 28° (NNE) 811 4.4 -10.6°
Enters shadow 19:20:14 16° 94° (E) 1,483 5.2 -11.2°
